Home > Weather > Gliwice > Past weeks

Flag for Poland Weather for the Past 2 Weeks in Gliwice, Poland

Now
48 °F

Passing clouds.


Feels Like: 43 °F
Forecast: 45 / 51 °F
Wind: 13 mph from South

Location: Katowice Airport

Current Time: Feb 8, 2016 at 4:36:40 PM

Latest Report: Feb 8, 2016 at 4:00 PM


Visibility: N/A

Pressure: 29.68 "Hg

Humidity: 66%

Dew point: 37 °F

Location of GliwiceLocation

Historic Weather in Gliwice — Graph

°F

Gliwice Temperature Yesterday

Maximum temperature yesterday: 52 °F (at 1:00 PM)
Minimum temperature yesterday: 32 °F (at 5:00 AM)
Average temperature yesterday: 41 °F

High & Low Weather Summary for the Past Weeks

 TemperatureHumidityPressure
High54 °F (Jan 30, 2:00 PM)100% (Jan 24, 3:00 PM)30.42 "Hg (Jan 24, 3:00 PM)
Low28 °F (Jan 29, 12:30 AM)44% (Jan 30, 2:30 PM)29.62 "Hg (Jan 31, 3:00 AM)
Average40 °F81%30.03 "Hg
* Reported Jan 24 3:00 PM — Feb 8 3:30 PM, Gliwice, Weather by CustomWeather, © 2016

Note: Actual official high and low records may vary slightly from our data, if they occured in-between our weather recording intervals... More about our weather records

Advertising

Gliwice Weather History for the Previous 24 Hours

 ConditionsComfort  
Time TempWeatherWind HumidityBarometerVisibility
3:30 PM
Mon, Feb 8
48 °FScattered clouds.16 mph66%29.71 "HgN/A
3:00 PM48 °FPartly sunny.13 mph66%29.71 "HgN/A
2:30 PM50 °FPassing clouds.20 mph62%29.71 "HgN/A
2:00 PM50 °FPassing clouds.24 mph58%29.71 "HgN/A
1:30 PM50 °FPassing clouds.17 mph62%29.74 "HgN/A
1:00 PM48 °FSunny.17 mph62%29.77 "Hg10 mi
12:30 PM48 °FSunny.17 mph62%29.77 "Hg10 mi
12:00 PM48 °FPassing clouds.15 mph62%29.80 "HgN/A
11:30 AM46 °FSunny.18 mph66%29.80 "Hg10 mi
11:00 AM46 °FSunny.15 mph66%29.80 "Hg10 mi
10:30 AM46 °FSunny.16 mph66%29.80 "Hg10 mi
10:00 AM46 °FSunny.17 mph66%29.83 "Hg10 mi
9:30 AM45 °FSunny.16 mph71%29.83 "Hg10 mi
9:00 AM45 °FSunny.16 mph71%29.83 "Hg10 mi
8:30 AM45 °FPassing clouds.14 mph71%29.83 "HgN/A
8:00 AM43 °FSunny.12 mph71%29.83 "Hg10 mi
7:30 AM43 °FSunny.12 mph71%29.83 "Hg10 mi
7:00 AM43 °FClear.13 mph71%29.83 "Hg10 mi
6:30 AM45 °FClear.13 mph66%29.83 "Hg10 mi
6:00 AM45 °FClear.13 mph66%29.83 "Hg10 mi
5:30 AM43 °FClear.13 mph71%29.83 "Hg10 mi
5:00 AM43 °FClear.10 mph71%29.83 "Hg10 mi
4:30 AM41 °FClear.8 mph76%29.83 "Hg10 mi
4:00 AM41 °FClear.6 mph76%29.83 "Hg10 mi
3:30 AM41 °FClear.8 mph76%29.83 "Hg10 mi
3:00 AM41 °FClear.6 mph76%29.80 "Hg10 mi
2:00 AM43 °FClear.3 mph71%29.80 "Hg10 mi
1:30 AM43 °FClear.5 mph71%29.80 "Hg10 mi
1:00 AM41 °FClear.6 mph70%29.80 "Hg10 mi
12:00 AM43 °FClear.7 mph66%29.80 "Hg10 mi
11:30 PM
Sun, Feb 7
43 °FClear.8 mph71%29.80 "Hg10 mi
11:00 PM43 °FClear.8 mph71%29.80 "Hg10 mi
10:30 PM45 °FClear.9 mph66%29.80 "Hg10 mi
10:00 PM45 °FClear.10 mph66%29.80 "Hg10 mi
9:30 PM45 °FClear.12 mph66%29.80 "Hg10 mi
9:00 PM45 °FClear.13 mph66%29.77 "Hg10 mi
8:30 PM45 °FClear.12 mph66%29.77 "Hg10 mi
8:00 PM43 °FClear.9 mph71%29.77 "Hg10 mi
7:30 PM43 °FClear.10 mph71%29.77 "Hg10 mi
7:00 PM43 °FClear.7 mph66%29.77 "Hg10 mi
6:30 PM43 °FClear.7 mph66%29.77 "Hg10 mi
6:00 PM43 °FClear.10 mph66%29.77 "Hg10 mi
5:30 PM45 °FClear.12 mph61%29.77 "Hg10 mi
5:00 PM45 °FClear.15 mph61%29.77 "Hg10 mi
4:30 PM46 °FSunny.13 mph57%29.77 "Hg10 mi
4:00 PM46 °FSunny.15 mph57%29.80 "Hg10 mi
Weather by CustomWeather, © 2016

See weather overviewHow to use our weather pages